Volver al catálogo

NOAA 16 DEB

ActivoSSO
NORAD 41499·DEBRIS·🇺🇸 United States

Lanzado Sep 21, 2000 desde Vandenberg Space Force Base

Loading…

Próximos Pases (próximas 24 horas)

TLE

ActualizadoSource: Space-Track

Época: Sep 13, 2026, 13:04 UTC

1 41499U 00055LX  26256.54477367  .00005474  00000-0  14893-2 0  9998
2 41499  98.6919 351.0064 0022732 339.8231  20.2060 14.47731795545805

Sigue NOAA 16 DEB en tiempo real con AllMySat

Download on the App Store